Погода в Трутнове

Чехия     50°33′41″N   15°54′07″E
темп.,
°C
ветер,
м/с
пор.,
м/с
влажн.,
%
обл.,
%
осадки,
мм/ч
давл.,
гПа
погр.,
м
20 июня, вс
вс2023:00+20св117056 0.0 101411
02:00+19ссв227397 0.0 101412
05:00+17в117994 0.0 101311
08:00+22ююв226696 0.0 1013252
11:00+26ююз335673 0.0 1013810
14:00+27ю225294 0.0 1012941
17:00+28ююз21486 0.0 10101273
20:00+25юв116741 0.0 100912
21 июня, пн
пн2123:00+20всв11791 0.0 101011
02:00+19св227943 0.0 100813
05:00+18св228168 0.0 100811
08:00+24ююв26648 0.0 1008512
11:00+26ю56605 0.0 10071094
14:00+26ююв346548 1.9 10071060
17:00+25ю357580 5.9 1007712
20:00+19ссв71293100 13.5 1008365
22 июня, вт
вт2223:00+16св2496100 4.9 1009111
02:00+16ссв34945 4.9 101072
05:00+15ссв359613 0.0 101191
08:00+18св478729 0.0 1012448
11:00+20св567876 0.0 1013735
14:00+22св567139 0.0 1013890
17:00+23всв566914 0.1 1013946
20:00+20св59842 0.3 1013472
23 июня, ср
ср2323:00+17св511929 0.2 1012334
02:00+17св3994100 1.3 1012246
05:00+17св2498100 6.4 1012155
08:00+16зюз48909 7.6 1015557
11:00+18юз6876100 0.1 1015979
14:00+20зюз676611 0.1 1016963
17:00+19зюз56660 0.0 1018643
20:00+18ссв35796 0.0 1018201
24 июня, чт
чт2423:00+12св359610 0.0 1020123
02:00+11ссв379793 0.0 1020173
05:00+12св4109296 0.0 1017282
08:00+14всв4890100 0.8 1017384
11:00+16св449194 2.4 1016499
14:00+15ссв3594100 2.9 1017308
17:00+15ссз1294100 1.4 1018238
20:00+15юз1297100 1.6 1018162